This demonstration page uses our WeatherBlox Daily Observations layout. Learn more.

Left ArrowRight Arrow

41.12389, -100.76542

Hourly Observations for July 30, 2016

Temp ( °F °C ) Dew Point ( °F °C ) Humidity (%) Winds ( mph kmh ) Pressure ( in mb ) Visibility ( mi km ) Precip ( " mm )
12:53 am 00:53 Partly Cloudy 67 19.4 65 18.3 93 93 E 6 9 29.98 1015 10 16 0.00 0.00
1:53 am 01:53 Clear 67 19.4 63 17.2 87 87 SE 7 11 29.98 1015 10 16 0.00 0.00
2:53 am 02:53 Mostly Clear 65 18.3 63 17.2 93 93 ESE 8 13 29.96 1015 10 16 0.00 0.00
3:53 am 03:53 Clear 64 17.8 62 16.7 93 93 ESE 6 9 29.96 1014 9 14 0.00 0.00
4:53 am 04:53 Clear 63 17.2 61 16.1 93 93 ESE 5 7 29.94 1014 8 13 0.00 0.00
5:53 am 05:53 Clear 62 16.7 60 15.6 93 93 E 6 9 29.92 1013 7 11 0.00 0.00
6:53 am 06:53 Sunny with Mist and Fog 61 16.1 60 15.6 97 97 E 6 9 29.94 1014 5 8 0.00 0.00
7:53 am 07:53 Sunny with Mist and Fog 64 17.8 63 17.2 96 96 E 6 9 29.95 1014 6 10 0.00 0.00
8:45 am 08:45 Mostly Sunny 66 19 64 18 94 94 ESE 9 15 29.91 1013 8 13 0.00 0.00
8:53 am 08:53 Sunny 68 20 64 17.8 87 87 ESE 8 13 29.95 1014 8 13 0.00 0.00
9:03 am 09:03 Mostly Sunny 68 20 65 18.3 90 90 E 9 15 29.88 1012 8 13 0.00 0.00
9:53 am 09:53 Mostly Cloudy 71 21.7 65 18.3 81 81 E 12 19 29.94 1014 10 16 0.00 0.00
10:53 am 10:53 Mostly Cloudy 73 22.8 65 18.3 76 76 ESE 15 24 29.94 1014 10 16 0.00 0.00
11:53 am 11:53 Mostly Cloudy 74 23.3 66 18.9 76 76 ESE 16 26 29.93 1014 10 16 0.00 0.00
12:53 pm 12:53 Cloudy 75 23.9 67 19.4 76 76 ESE 15 24 29.93 1014 10 16 0.00 0.00
1:26 pm 13:26 Partly Cloudy 77 25 68 20 74 74 ESE 13 20 29.85 1011 10 16 0.00 0.00
1:53 pm 13:53 Sunny 78 25.6 69 20.6 74 74 ESE 12 19 29.90 1013 10 16 0.00 0.00
2:53 pm 14:53 Mostly Sunny 83 28.3 69 20.6 63 63 SE 10 17 29.87 1012 10 16 0.00 0.00
3:53 pm 15:53 Partly Cloudy 85 29.4 69 20.6 59 59 ESE 9 15 29.86 1011 10 16 0.00 0.00
4:53 pm 16:53 Partly Cloudy 85 29.4 67 19.4 55 55 SE 8 13 29.84 1011 10 16 0.00 0.00
5:53 pm 17:53 Mostly Sunny 85 29.4 68 20 57 57 SE 8 13 29.83 1010 10 16 0.00 0.00
6:53 pm 18:53 Sunny 84 28.9 67 19.4 57 57 SE 8 13 29.83 1010 10 16 0.00 0.00
7:53 pm 19:53 Sunny 81 27.2 67 19.4 62 62 SE 9 15 29.81 1010 10 16 0.00 0.00
8:53 pm 20:53 Sunny 75 23.9 68 20 79 79 ESE 7 11 29.83 1010 10 16 0.00 0.00
9:53 pm 21:53 Clear 73 22.8 69 20.6 87 87 E 9 15 29.85 1011 10 16 0.00 0.00
10:53 pm 22:53 Clear 71 21.7 68 20 90 90 ESE 8 13 29.85 1011 10 16 0.00 0.00
11:53 pm 23:53 Clear 73 22.8 67 19.4 81 81 SE 12 19 29.83 1010 10 16 0.00 0.00

Powered by AerisWeather